TimeAST,TemperatureF,Dew PointF,Humidity,Sea Level PressureIn,VisibilityMPH,Wind Direction,Wind SpeedMPH,Gust SpeedMPH,PrecipitationIn,Events,Conditions,WindDirDegrees,DateUTC
12:00 AM,36.7,31.6,82,-9999,-9999.0,North,-9999.0,-,N/A,,Unknown,0,2012-12-15 04:00:00
1:00 AM,33.3,30.4,89,-9999,-9999.0,North,-9999.0,-,N/A,,Unknown,0,2012-12-15 05:00:00
2:00 AM,33.8,30.0,86,-9999,-9999.0,North,-9999.0,-,N/A,,Unknown,0,2012-12-15 06:00:00
3:00 AM,34.3,27.7,77,-9999,-9999.0,North,-9999.0,-,N/A,,Unknown,0,2012-12-15 07:00:00
4:00 AM,31.8,26.8,82,-9999,-9999.0,North,-9999.0,-,N/A,,Unknown,0,2012-12-15 08:00:00
5:00 AM,31.3,25.3,79,-9999,-9999.0,North,-9999.0,-,N/A,,Unknown,0,2012-12-15 09:00:00
6:00 AM,30.6,25.0,80,-9999,-9999.0,North,-9999.0,-,N/A,,Unknown,0,2012-12-15 10:00:00
7:00 AM,28.0,21.7,77,-9999,-9999.0,North,-9999.0,-,N/A,,Unknown,0,2012-12-15 11:00:00
8:00 AM,27.7,19.9,73,-9999,-9999.0,North,-9999.0,-,N/A,,Unknown,0,2012-12-15 12:00:00
9:00 AM,27.3,21.0,77,-9999,-9999.0,North,-9999.0,-,N/A,,Unknown,0,2012-12-15 13:00:00
10:00 AM,28.2,21.7,77,-9999,-9999.0,North,-9999.0,-,N/A,,Unknown,0,2012-12-15 14:00:00
11:00 AM,27.9,23.0,82,-9999,-9999.0,North,-9999.0,-,N/A,,Unknown,0,2012-12-15 15:00:00
12:00 PM,28.0,20.8,74,-9999,-9999.0,North,-9999.0,-,N/A,,Unknown,0,2012-12-15 16:00:00
1:00 PM,28.9,17.2,62,-9999,-9999.0,North,-9999.0,-,N/A,,Unknown,0,2012-12-15 17:00:00
2:00 PM,27.9,16.0,61,-9999,-9999.0,North,-9999.0,-,N/A,,Unknown,0,2012-12-15 18:00:00
3:00 PM,25.3,15.3,66,-9999,-9999.0,North,-9999.0,-,N/A,,Unknown,0,2012-12-15 19:00:00
4:00 PM,23.0,15.1,72,-9999,-9999.0,North,-9999.0,-,N/A,,Unknown,0,2012-12-15 20:00:00
5:00 PM,21.0,12.4,69,-9999,-9999.0,North,-9999.0,-,N/A,,Unknown,0,2012-12-15 21:00:00
6:00 PM,19.8,14.5,80,-9999,-9999.0,North,-9999.0,-,N/A,,Unknown,0,2012-12-15 22:00:00
7:00 PM,18.3,10.6,72,-9999,-9999.0,North,-9999.0,-,N/A,,Unknown,0,2012-12-15 23:00:00
8:00 PM,16.7,9.7,74,-9999,-9999.0,North,-9999.0,-,N/A,,Unknown,0,2012-12-16 00:00:00
9:00 PM,16.0,10.6,79,-9999,-9999.0,North,-9999.0,-,N/A,,Unknown,0,2012-12-16 01:00:00
10:00 PM,14.2,9.0,80,-9999,-9999.0,North,-9999.0,-,N/A,,Unknown,0,2012-12-16 02:00:00
11:00 PM,13.3,7.9,79,-9999,-9999.0,North,-9999.0,-,N/A,,Unknown,0,2012-12-16 03:00:00